Home   Weather   Heide   Past weeks

Flag for Germany Past Weather in Heide, Schleswig-Holstein, Germany — Yesterday and Last 2 Weeks

Now
36 °F

Fog.


Feels Like: 31 °F
Forecast: 27 / 33 °F
Wind: 6 mph from West

Location: Hohn

Current Time: Jan 24, 2017 at 2:43:35 pm

Latest Report: Jan 24, 2017 at 1:20 pm


Visibility: 1 mi

Pressure: 30.36 "Hg

Humidity: 93%

Dew Point: 34 °F

Location of HeideLocation

Past Weather in Heide — Graph

°F

Heide Temperature Yesterday

Maximum temperature yesterday: 36 °F (at 1:20 pm)
Minimum temperature yesterday: 30 °F (at 12:20 am)
Average temperature yesterday: 33 °F

High & Low Weather Summary for the Past Weeks

 TemperatureHumidityPressure
High46 °F (Jan 11, 1:20 pm)100% (Jan 13, 3:20 am)30.72 "Hg (Jan 13, 3:20 am)
Low18 °F (Jan 16, 8:20 am)56% (Jan 15, 3:20 pm)29.15 "Hg (Jan 13, 4:20 am)
Average34 °F87%30.08 "Hg
* Reported Jan 9 1:20 pm — Jan 24 1:20 pm, Heide, Weather by CustomWeather, © 2017

Note: Actual official high and low records may vary slightly from our data, if they occured in-between our weather recording intervals... More about our weather records

Advertising

Heide Weather History for the Previous 24 Hours

Scroll right to see more
 ConditionsComfort  
Time TempWeatherWind HumidityBarometerVisibility
1:20 pm
Tue, Jan 24
36 °FFog.6 mph93%30.36 "Hg1 mi
12:40 pm36 °FFog.6 mph93%30.36 "Hg1 mi
12:20 pm36 °FFog.6 mph93%30.36 "Hg1 mi
11:40 am34 °FFog.6 mph100%30.36 "Hg1 mi
11:20 am34 °FFog.6 mph100%30.36 "Hg0 mi
10:20 am34 °FFog.7 mph93%30.33 "Hg0 mi
9:20 am34 °FFog.5 mph93%30.33 "Hg0 mi
8:20 am34 °FFog.5 mph93%30.30 "Hg0 mi
8:03 am34 °FFog.7 mph93%30.30 "Hg0 mi
7:20 am34 °FFog.7 mph93%30.30 "Hg1 mi
6:47 am34 °FFog.7 mph93%30.30 "Hg1 mi
6:20 am34 °FFog.5 mph93%30.27 "Hg0 mi
5:20 am34 °FFog.7 mph100%30.27 "Hg0 mi
4:20 am34 °FFog.7 mph100%30.27 "Hg0 mi
3:20 am34 °FFog.8 mph100%30.27 "Hg0 mi
2:20 am34 °FFog.6 mph100%30.24 "Hg1 mi
1:20 am36 °FFog.6 mph93%30.27 "Hg1 mi
12:20 am34 °FFog.5 mph93%30.27 "Hg1 mi
11:20 pm
Mon, Jan 23
34 °FFog.6 mph93%30.27 "Hg1 mi
10:20 pm36 °FFog.6 mph93%30.24 "Hg1 mi
9:20 pm36 °FFog.6 mph93%30.24 "Hg1 mi
8:20 pm34 °FFog.3 mph93%30.24 "Hg1 mi
7:50 pm34 °FFog.3 mph93%30.24 "Hg1 mi
7:20 pm34 °FFog.5 mph93%30.24 "Hg1 mi
6:20 pm34 °FFog.7 mph93%30.24 "Hg1 mi
5:20 pm34 °FFog.6 mph93%30.24 "Hg1 mi
5:06 pm34 °FFog.7 mph93%30.24 "Hg1 mi
4:20 pm36 °FFog.6 mph87%30.24 "Hg1 mi
3:20 pm36 °FFog.6 mph87%30.24 "Hg1 mi
2:46 pm36 °FFog.7 mph87%30.24 "Hg1 mi
2:20 pm36 °FFog.5 mph87%30.24 "Hg1 mi
Weather by CustomWeather, © 2017

See weather overviewHow to use our weather pages